Voltar ao catálogo

CZ-2C DEB

AtivoPO
NORAD 37735·DEBRIS·🇨🇳 China

Lançado Jul 6, 2011 de Jiuquan Satellite Launch Center

Loading…

Próximas Passagens (próximas 24 horas)

TLE

AtualizadoSource: Space-Track

Época: Sep 14, 2026, 13:27 UTC

1 37735U 11030F   26257.56062499  .00032239  00000-0  13767-2 0  9998
2 37735  98.4597 201.3143 0023820 186.0577 174.0372 15.22565989811682

Acompanhe CZ-2C DEB em tempo real com AllMySat

Download on the App Store